DAMMC LHBP-EDVE

Flight info

Callsign DAMMC
Flight time 1h 13m
Altitude 34000
Route BADOV DCT BULEK/N0284F080 L624 LEMBI DCT TADUV T804 MAG L986 POVEL POVEL4R
Aircraft CL60/M-MSBDE1E2E3FGHIJ4J5J7M3RWXYLB1V1D1/LB1V1D1

Departure

Time 2026-05-04 17:25
Airport Budapest Liszt Ferenc International Airport (LHBP)

Arrival

Time 2026-05-04 18:38
Airport Braunschweig-Wolfsburg Airport (EDVE)
Time Latitude Longitude Altitude Speed Heading
2026-05-04 17:01 47.44053 19.22595 445 ft 0 kts 247°
2026-05-04 17:22 47.44052 19.22593 445 ft 0 kts 238°
2026-05-04 17:22 47.44040 19.22596 445 ft 7 kts 121°
2026-05-04 17:23 47.44291 19.22499 447 ft 19 kts 333°
2026-05-04 17:23 47.44415 19.22404 448 ft 15 kts 336°
2026-05-04 17:23 47.44482 19.22392 449 ft 0 kts 37°
2026-05-04 17:24 47.44492 19.22406 449 ft 7 kts 51°
2026-05-04 17:24 47.44105 19.23312 445 ft 134 kts 135°
2026-05-04 17:25 47.43341 19.24599 763 ft 186 kts 133°
2026-05-04 17:25 47.41444 19.27637 2449 ft 211 kts 137°
2026-05-04 17:26 47.39296 19.31014 3771 ft 236 kts 136°
2026-05-04 17:26 47.35885 19.36494 5877 ft 261 kts 128°
2026-05-04 17:27 47.35638 19.41727 8427 ft 282 kts 63°
2026-05-04 17:27 47.38612 19.45462 10898 ft 297 kts 24°
2026-05-04 17:28 47.42646 19.45773 13348 ft 305 kts 339°
2026-05-04 17:29 47.47974 19.40481 16817 ft 315 kts 325°
2026-05-04 17:29 47.53376 19.34745 19868 ft 326 kts 325°
2026-05-04 17:30 47.58997 19.28737 22558 ft 340 kts 325°
2026-05-04 17:31 47.62875 19.24574 24230 ft 348 kts 325°
2026-05-04 17:31 47.68897 19.18085 26563 ft 358 kts 325°
2026-05-04 17:32 47.72989 19.13661 27905 ft 365 kts 325°
2026-05-04 17:33 47.79223 19.06899 29751 ft 373 kts 325°
2026-05-04 17:33 47.81321 19.04618 30327 ft 375 kts 325°
2026-05-04 17:34 47.87702 18.97666 31854 ft 384 kts 324°
2026-05-04 17:34 47.89847 18.95323 32292 ft 387 kts 324°
2026-05-04 17:35 47.96457 18.88089 33473 ft 397 kts 324°
2026-05-04 17:35 48.00914 18.83197 34016 ft 407 kts 324°
2026-05-04 17:36 48.05267 18.77429 34018 ft 426 kts 316°
2026-05-04 17:36 48.09568 18.71117 34013 ft 442 kts 317°
2026-05-04 17:37 48.14014 18.64590 34015 ft 452 kts 317°
2026-05-04 17:37 48.18521 18.57962 34012 ft 454 kts 317°
2026-05-04 17:38 48.23032 18.51311 34012 ft 454 kts 317°
2026-05-04 17:38 48.27501 18.44706 34012 ft 454 kts 317°
2026-05-04 17:39 48.34266 18.34676 34017 ft 454 kts 316°
2026-05-04 17:39 48.38742 18.28018 34021 ft 453 kts 316°
2026-05-04 17:40 48.43195 18.21379 34015 ft 452 kts 316°
2026-05-04 17:40 48.47657 18.14707 34014 ft 452 kts 316°
2026-05-04 17:41 48.52105 18.08038 34013 ft 451 kts 316°
2026-05-04 17:41 48.56560 18.01344 34021 ft 451 kts 316°
2026-05-04 17:42 48.60997 17.94658 34025 ft 452 kts 316°
2026-05-04 17:42 48.65437 17.87950 34025 ft 452 kts 316°
2026-05-04 17:43 48.69901 17.81188 34016 ft 451 kts 316°
2026-05-04 17:43 48.74307 17.74496 34012 ft 451 kts 316°
2026-05-04 17:44 48.78721 17.67775 33999 ft 451 kts 316°
2026-05-04 17:44 48.83159 17.60999 34001 ft 451 kts 316°
2026-05-04 17:45 48.87578 17.54234 33997 ft 452 kts 316°
2026-05-04 17:45 48.92026 17.47406 33987 ft 452 kts 316°
2026-05-04 17:46 48.96434 17.40622 33988 ft 453 kts 315°
2026-05-04 17:46 49.00839 17.33825 33982 ft 453 kts 315°
2026-05-04 17:47 49.05262 17.26980 33989 ft 454 kts 314°
2026-05-04 17:47 49.09688 17.20115 33974 ft 454 kts 315°
2026-05-04 17:48 49.14115 17.13229 33971 ft 454 kts 315°
2026-05-04 17:48 49.18520 17.06357 33979 ft 454 kts 314°
2026-05-04 17:49 49.22944 16.99438 33975 ft 454 kts 314°
2026-05-04 17:49 49.27353 16.92522 33974 ft 454 kts 314°
2026-05-04 17:50 49.31770 16.85576 33973 ft 454 kts 314°
2026-05-04 17:50 49.36158 16.78656 33983 ft 453 kts 314°
2026-05-04 17:51 49.40541 16.71727 33976 ft 452 kts 314°
2026-05-04 17:51 49.44913 16.64793 33977 ft 452 kts 314°
2026-05-04 17:52 49.49266 16.57869 33972 ft 452 kts 314°
2026-05-04 17:52 49.53625 16.50918 33963 ft 451 kts 314°
2026-05-04 17:53 49.57996 16.43931 33972 ft 451 kts 314°
2026-05-04 17:53 49.62348 16.36957 33977 ft 451 kts 314°
2026-05-04 17:54 49.66687 16.29983 33964 ft 450 kts 313°
2026-05-04 17:54 49.70996 16.23039 33964 ft 450 kts 313°
2026-05-04 17:55 49.75337 16.16023 33970 ft 450 kts 313°
2026-05-04 17:55 49.79651 16.09030 33970 ft 451 kts 313°
2026-05-04 17:56 49.83966 16.02019 33968 ft 451 kts 313°
2026-05-04 17:56 49.88290 15.94972 33959 ft 452 kts 313°
2026-05-04 17:57 49.92641 15.87862 33960 ft 452 kts 313°
2026-05-04 17:57 49.96956 15.80792 33964 ft 452 kts 312°
2026-05-04 17:58 50.01273 15.73698 33960 ft 453 kts 312°
2026-05-04 17:58 50.05624 15.66529 33967 ft 454 kts 312°
2026-05-04 17:59 50.09957 15.59373 33963 ft 455 kts 312°
2026-05-04 18:00 50.16432 15.48641 33951 ft 456 kts 312°
2026-05-04 18:00 50.20776 15.41414 33950 ft 456 kts 312°
2026-05-04 18:01 50.25122 15.34161 33950 ft 457 kts 311°
2026-05-04 18:01 50.29448 15.26923 33955 ft 457 kts 311°
2026-05-04 18:02 50.35940 15.16020 33955 ft 457 kts 311°
2026-05-04 18:02 50.40279 15.08708 33952 ft 457 kts 311°
2026-05-04 18:03 50.44886 15.01839 33947 ft 460 kts 318°
2026-05-04 18:03 50.49791 14.95366 33954 ft 461 kts 318°
2026-05-04 18:04 50.54539 14.88627 33969 ft 458 kts 310°
2026-05-04 18:05 50.59830 14.76309 33960 ft 455 kts 301°
2026-05-04 18:05 50.63170 14.67843 33959 ft 454 kts 300°
2026-05-04 18:06 50.68144 14.55161 33957 ft 453 kts 300°
2026-05-04 18:06 50.71431 14.46730 33957 ft 453 kts 300°
2026-05-04 18:07 50.74708 14.38288 33953 ft 453 kts 300°
2026-05-04 18:07 50.77999 14.29778 33944 ft 452 kts 300°
2026-05-04 18:08 50.81267 14.21300 33938 ft 452 kts 299°
2026-05-04 18:08 50.84506 14.12861 33940 ft 451 kts 299°
2026-05-04 18:09 50.91000 13.95861 33944 ft 451 kts 299°
2026-05-04 18:10 50.94242 13.87332 33944 ft 451 kts 299°
2026-05-04 18:10 50.97474 13.78797 33949 ft 451 kts 299°
2026-05-04 18:11 51.00688 13.70268 33948 ft 452 kts 298°
2026-05-04 18:11 51.03886 13.61670 33946 ft 452 kts 298°
2026-05-04 18:12 51.07095 13.53042 33950 ft 452 kts 298°
2026-05-04 18:12 51.10272 13.44487 33943 ft 452 kts 298°
2026-05-04 18:13 51.13463 13.35876 33941 ft 451 kts 298°
2026-05-04 18:14 51.18245 13.22938 33935 ft 450 kts 297°
2026-05-04 18:14 51.21433 13.14400 33935 ft 451 kts 301°
2026-05-04 18:15 51.29102 12.98528 33937 ft 453 kts 304°
2026-05-04 18:16 51.32940 12.90618 33936 ft 453 kts 304°
2026-05-04 18:16 51.36750 12.82742 33932 ft 433 kts 304°
2026-05-04 18:17 51.40306 12.75367 33578 ft 409 kts 304°
2026-05-04 18:17 51.42034 12.71766 33094 ft 404 kts 304°
2026-05-04 18:17 51.45386 12.64767 32099 ft 393 kts 304°
2026-05-04 18:18 51.47051 12.61282 31590 ft 388 kts 303°
2026-05-04 18:18 51.48676 12.57875 31071 ft 384 kts 304°
2026-05-04 18:18 51.50294 12.54478 30559 ft 380 kts 303°
2026-05-04 18:18 51.51887 12.51129 30051 ft 376 kts 303°
2026-05-04 18:19 51.55014 12.44541 29061 ft 368 kts 303°
2026-05-04 18:19 51.56535 12.41285 28571 ft 364 kts 301°
2026-05-04 18:19 51.57847 12.37869 28072 ft 359 kts 297°
2026-05-04 18:20 51.59121 12.34370 27583 ft 359 kts 296°
2026-05-04 18:20 51.60368 12.30959 27118 ft 357 kts 296°
2026-05-04 18:20 51.61620 12.27529 26653 ft 355 kts 296°
2026-05-04 18:20 51.62873 12.24092 26188 ft 353 kts 296°
2026-05-04 18:21 51.64108 12.20702 25729 ft 351 kts 296°
2026-05-04 18:21 51.65338 12.17318 25270 ft 349 kts 296°
2026-05-04 18:21 51.66555 12.13967 24812 ft 347 kts 296°
2026-05-04 18:21 51.67758 12.10651 24362 ft 345 kts 297°
2026-05-04 18:22 51.68957 12.07340 23918 ft 343 kts 297°
2026-05-04 18:22 51.70155 12.04028 23473 ft 341 kts 297°
2026-05-04 18:22 51.71352 12.00715 23034 ft 339 kts 297°
2026-05-04 18:22 51.72542 11.97416 22604 ft 336 kts 297°
2026-05-04 18:23 51.73705 11.94189 22175 ft 334 kts 297°
2026-05-04 18:23 51.74868 11.90955 21745 ft 332 kts 297°
2026-05-04 18:23 51.76035 11.87711 21178 ft 334 kts 297°
2026-05-04 18:23 51.77186 11.84502 20459 ft 336 kts 297°
2026-05-04 18:24 51.78350 11.81255 19971 ft 330 kts 297°
2026-05-04 18:24 51.79490 11.78074 19521 ft 325 kts 297°
2026-05-04 18:24 51.80606 11.74954 19082 ft 321 kts 297°
2026-05-04 18:24 51.81718 11.71839 18657 ft 317 kts 297°
2026-05-04 18:25 51.82816 11.68762 18237 ft 314 kts 297°
2026-05-04 18:25 51.83903 11.65707 17814 ft 317 kts 297°
2026-05-04 18:25 51.85003 11.62613 17384 ft 315 kts 297°
2026-05-04 18:25 51.86103 11.59551 16997 ft 315 kts 300°
2026-05-04 18:26 51.87460 11.56810 16573 ft 315 kts 310°
2026-05-04 18:26 51.88925 11.54190 16157 ft 313 kts 309°
2026-05-04 18:26 51.90367 11.51591 15708 ft 312 kts 309°
2026-05-04 18:26 51.91815 11.48970 15251 ft 310 kts 309°
2026-05-04 18:27 51.93250 11.46366 14807 ft 309 kts 309°
2026-05-04 18:27 51.94684 11.43758 14388 ft 307 kts 309°
2026-05-04 18:27 51.96090 11.41192 13970 ft 306 kts 309°
2026-05-04 18:27 51.97489 11.38636 13539 ft 305 kts 309°
2026-05-04 18:28 51.98887 11.36075 13110 ft 303 kts 309°
2026-05-04 18:28 52.00294 11.33493 12657 ft 302 kts 308°
2026-05-04 18:28 52.01687 11.30932 11943 ft 305 kts 309°
2026-05-04 18:28 52.03080 11.28367 11196 ft 306 kts 309°
2026-05-04 18:29 52.04474 11.25797 10508 ft 306 kts 309°
2026-05-04 18:29 52.05871 11.23218 10071 ft 302 kts 309°
2026-05-04 18:29 52.07248 11.20673 9635 ft 298 kts 309°
2026-05-04 18:29 52.08606 11.18158 9239 ft 293 kts 309°
2026-05-04 18:30 52.11255 11.13241 8468 ft 283 kts 309°
2026-05-04 18:30 52.12528 11.10874 8091 ft 278 kts 309°
2026-05-04 18:30 52.13794 11.08514 7726 ft 274 kts 309°
2026-05-04 18:31 52.15047 11.06176 7362 ft 273 kts 309°
2026-05-04 18:31 52.16304 11.03830 6994 ft 272 kts 309°
2026-05-04 18:31 52.17539 11.01520 6634 ft 268 kts 309°
2026-05-04 18:31 52.18751 10.99253 6285 ft 263 kts 309°
2026-05-04 18:32 52.19938 10.97029 5938 ft 258 kts 310°
2026-05-04 18:32 52.21108 10.94835 5667 ft 250 kts 310°
2026-05-04 18:32 52.22243 10.92702 5331 ft 248 kts 310°
2026-05-04 18:32 52.23365 10.90592 5002 ft 244 kts 310°
2026-05-04 18:33 52.24459 10.88532 4681 ft 240 kts 310°
2026-05-04 18:33 52.25547 10.86483 4367 ft 236 kts 311°
2026-05-04 18:33 52.26711 10.84619 4065 ft 232 kts 328°
2026-05-04 18:33 52.28180 10.83761 3990 ft 218 kts 352°
2026-05-04 18:34 52.29628 10.83552 4010 ft 200 kts 355°
2026-05-04 18:34 52.30964 10.83276 3827 ft 193 kts 340°
2026-05-04 18:34 52.32176 10.82666 3837 ft 173 kts 335°
2026-05-04 18:34 52.33121 10.81416 3373 ft 170 kts 303°
2026-05-04 18:35 52.33376 10.79713 3363 ft 160 kts 275°
2026-05-04 18:35 52.33295 10.77841 2735 ft 162 kts 264°
2026-05-04 18:35 52.33118 10.76114 2543 ft 156 kts 264°
2026-05-04 18:35 52.32975 10.74363 2296 ft 155 kts 267°
2026-05-04 18:36 52.32870 10.72605 2105 ft 155 kts 269°
2026-05-04 18:36 52.32790 10.70841 1903 ft 154 kts 270°
2026-05-04 18:36 52.32715 10.69088 1749 ft 154 kts 266°
2026-05-04 18:36 52.32590 10.67340 1585 ft 155 kts 269°
2026-05-04 18:37 52.32487 10.65582 1285 ft 153 kts 267°
2026-05-04 18:37 52.32379 10.63872 1136 ft 154 kts 266°
2026-05-04 18:37 52.32272 10.62122 917 ft 154 kts 269°
2026-05-04 18:37 52.32184 10.60378 718 ft 154 kts 268°
2026-05-04 18:38 52.32087 10.58623 490 ft 153 kts 268°
2026-05-04 18:38 52.31994 10.56908 301 ft 139 kts 266°
2026-05-04 18:38 52.31924 10.55641 289 ft 68 kts 264°
2026-05-04 18:38 52.31898 10.55153 285 ft 23 kts 265°
2026-05-04 18:39 52.31885 10.54913 283 ft 20 kts 263°
2026-05-04 18:39 52.31857 10.54716 280 ft 14 kts 227°
2026-05-04 18:39 52.31787 10.54675 279 ft 8 kts 174°
2026-05-04 18:39 52.31766 10.54678 279 ft 0 kts 176°
2026-05-04 18:41 52.31725 10.54684 279 ft 15 kts 172°
2026-05-04 18:41 52.31651 10.54698 279 ft 7 kts 188°
2026-05-04 18:41 52.31624 10.54654 279 ft 6 kts 262°
2026-05-04 18:41 52.31622 10.54624 278 ft 0 kts 268°